Location: Bishopstone
(51.0167°N, 1.9000°W)
Time: 13:30:31
(UTC+00:00)

Cosmos 1605 Rocket - Pass Details

Date: 16 September 2019
Orbit: 945 x 1005 km, 82.9° (Epoch: 15 October)

Event Time Altitude Azimuth Distance (km) Brightness Sun altitude
Rises 21:31:04 0° 352° (N) 3,748 7.8 -27.6°
Reaches altitude 10° 21:33:44 10° 358° (N) 2,793 7.0 -27.8°
Enters shadow 21:39:37 48° 63° (ENE) 1,290 4.4 -28.5°
